Location: Ceske Budejovice
(48.9830°N, 14.4670°E)
Time: 06:02:13
(UTC+02:00)

ISS - Pass Details

Date: 01 April 2019
Orbit: 408 x 410 km, 51.6° (Epoch: 22 April)

Event Time Altitude Azimuth Distance (km) Brightness Sun altitude
Rises 20:09:51 0° 282° (WNW) 2,338 2.7 -6.8°
Reaches altitude 10° 20:11:59 10° 287° (WNW) 1,476 0.8 -7.2°
Maximum altitude 20:15:13 53° 5° (N) 510 -3.3 -7.7°
Drops below altitude 10° 20:18:28 10° 84° (E) 1,473 -1.6 -8.2°
Enters shadow 20:18:32 10° 85° (E) 1,496 -1.5 -8.2°
